Weather History for KOLF - October, 2012

Change the Weather History Date:

Thursday, October 25, 2012

  Actual Average Record
Temperature  
Mean Temperature 31 °F -  
Max Temperature 34 °F 53 °F 68 °F (1998)
Min Temperature 28 °F 26 °F 12 °F (2002)
Degree Days  
Heating Degree Days 34    
Cooling Degree Days 0    
Moisture  
Dew Point 21 °F    
Average Humidity 64    
Maximum Humidity 72    
Minimum Humidity 55    
Precipitation  
Precipitation 0.00 in 0.03 in 0.36 in (2010)
Month to date precipitation 0.70 0.70  
Year to date precipitation 9.84 11.38  
Sea Level Pressure  
Sea Level Pressure 30.35 in    
Wind  
Wind Speed 15 mph (WNW)    
Max Wind Speed 21 mph    
Max Gust Speed 30 mph    
Visibility 10 miles    
Events      
T = Trace of Precipitation, MM = Missing Value Source: NWS Daily Summary

Daily Weather History Graph

Daily Weather History Graph

Search for Another Location

Airport or City:

Trip Planner

Search our weather history database for the weather conditions in past years. The results will help you decide how hot, cold, wet, or windy it might be!

Date:

Astronomy

Oct. 25, 2012 Rise Set
Actual Time 7:37 AM MDT 5:54 PM MDT
Civil Twilight 7:05 AM MDT 6:26 PM MDT
Nautical Twilight 6:29 AM MDT 7:02 PM MDT
Astronomical Twilight 5:53 AM MDT 7:38 PM MDT
Moon 3:55 PM MDT (10/25) 3:20 AM MDT (10/25)
Length of Visible Light 11h 20m
Length of Day
10h 16m
Waxing Gibbous, 85% of the Moon is Illuminated
Oct 25
Waxing Gibbous
Oct 29
Full
Nov 6
Last Quarter
Nov 13
New
Nov 20
First Quarter

Hourly Weather History & Observations

Time (MDT) Temp. Windchill Dew Point Humidity Pressure Visibility Wind Dir Wind Speed Gust Speed Precip Events Conditions
12:53 AM 30.0 °F 20.5 °F 21.9 °F 72% 30.27 in 10.0 mi WNW 11.5 mph - N/A   Overcast
1:53 AM 30.0 °F 20.0 °F 21.9 °F 72% 30.27 in 10.0 mi West 12.7 mph - N/A   Overcast
2:53 AM 30.9 °F 20.7 °F 21.9 °F 69% 30.27 in 10.0 mi WNW 13.8 mph - N/A   Overcast
3:53 AM 30.9 °F 21.7 °F 21.9 °F 69% 30.27 in 10.0 mi West 11.5 mph - N/A   Overcast
4:53 AM 30.9 °F 21.2 °F 21.9 °F 69% 30.28 in 10.0 mi WNW 12.7 mph - N/A   Overcast
5:53 AM 30.9 °F 19.8 °F 21.9 °F 69% 30.30 in 10.0 mi WNW 16.1 mph - N/A   Overcast
6:53 AM 30.9 °F 19.4 °F 21.9 °F 69% 30.31 in 10.0 mi NW 17.3 mph - N/A   Overcast
7:53 AM 30.0 °F 19.1 °F 21.9 °F 72% 30.33 in 10.0 mi NW 15.0 mph - N/A   Overcast
8:53 AM 30.0 °F 19.5 °F 21.0 °F 69% 30.35 in 10.0 mi WNW 13.8 mph 19.6 mph N/A   Overcast
9:53 AM 30.9 °F 21.7 °F 21.9 °F 69% 30.35 in 10.0 mi WNW 11.5 mph - N/A   Overcast
10:53 AM 32.0 °F 21.2 °F 21.9 °F 66% 30.35 in 10.0 mi WNW 16.1 mph 24.2 mph N/A   Overcast
11:53 AM 32.0 °F 20.5 °F 21.9 °F 66% 30.36 in 10.0 mi WNW 18.4 mph 24.2 mph N/A   Overcast
12:53 PM 32.0 °F 21.2 °F 21.9 °F 66% 30.35 in 10.0 mi NW 16.1 mph 25.3 mph N/A   Overcast
1:53 PM 33.1 °F 21.2 °F 21.0 °F 61% 30.36 in 10.0 mi WNW 20.7 mph 26.5 mph N/A   Overcast
2:28 PM 33.8 °F 22.2 °F 21.2 °F 60% 30.28 in 10.0 mi NW 20.7 mph 28.8 mph N/A   Overcast
2:53 PM 34.0 °F 22.4 °F 21.0 °F 59% 30.36 in 10.0 mi WNW 20.7 mph 29.9 mph N/A   Overcast
3:53 PM 34.0 °F 22.4 °F 21.0 °F 59% 30.37 in 10.0 mi WNW 20.7 mph 27.6 mph N/A   Overcast
4:53 PM 33.1 °F 21.9 °F 21.0 °F 61% 30.39 in 10.0 mi NW 18.4 mph 25.3 mph N/A   Overcast
5:53 PM 33.1 °F 21.9 °F 19.0 °F 56% 30.41 in 10.0 mi WNW 18.4 mph - N/A   Overcast
6:53 PM 32.0 °F 23.0 °F 19.4 °F 60% 30.36 in 10.0 mi WNW 11.5 mph - N/A   Overcast
7:53 PM 30.9 °F 20.2 °F 19.9 °F 64% 30.45 in 10.0 mi WNW 15.0 mph - N/A   Overcast
8:53 PM 30.0 °F 17.9 °F 18.0 °F 61% 30.46 in 10.0 mi WNW 18.4 mph 24.2 mph N/A   Overcast
9:53 PM 30.2 °F 20.2 °F 15.8 °F 55% 30.39 in 10.0 mi NW 12.7 mph - N/A   Overcast
10:53 PM 28.9 °F 18.2 °F 16.0 °F 58% 30.47 in 10.0 mi WNW 13.8 mph - N/A   Overcast
11:53 PM 28.9 °F 19.2 °F 17.1 °F 61% 30.47 in 10.0 mi WNW 11.5 mph - N/A   Overcast